Reflectivity
-20 -20 -20 -20 -20 -20 -20 -20 -20 -16 -20 -10 -6 -20 -20 -20 -20 -20 17 12 10 14 9 4 21 18 -0 -8 -20 -20 -15 -16
-20 -20 -20 -20 -20 -20 -20 -20 -20 -20 3 8 -16 -8 -19 -20 -14 -20 16 13 5 22 32 29 7 22 -6 -19 6 13 -9 8
-20 -20 -20 -20 -20 -20 -20 -20 -20 -19 -20 -3 -20 -20 -13 17 0 15 14 21 23 24 17 26 29 19 -15 -6 11 -14 14 10
-20 -20 -20 -20 -20 -20 -20 -20 -20 -20 -6 12 -11 -20 -20 4 5 11 13 27 31 35 34 29 31 11 1 -20 -20 -20 -20 -20
-20 -20 -20 -20 -20 -20 -20 -20 -20 -20 13 13 -6 -20 -20 -20 -8 -20 -9 -7 2 12 21 29 22 25 25 -13 -17 -14 -20 -10
-20 -20 -20 -20 -20 -20 -20 -20 -20 -20 -19 14 -19 -20 -17 -19 6 -20 -11 15 3 20 21 16 18 24 25 19 -20 -19 -20 -20
-20 -20 -20 -20 -20 -20 -20 -20 -20 -15 -20 1 -17 -20 -20 -20 -20 -20 -9 -10 -3 -20 -4 -14 -12 7 11 -3 -19 -15 -19 -17
-20 -20 -20 -20 -20 -20 -20 -20 -20 -1 -20 -20 -19 -20 -20 -20 -20 -20 -17 -20 -20 -20 -20 -20 -20 -20 -20 -20 -20 -20 -14 7
-20 -20 -20 -20 -20 -20 -20 -20 -20 -17 -3 -15 -20 -20 -20 -20 -20 -20 -20 -20 -20 -20 -20 -20 -20 -20 -20 -20 -20 -20 -20 9
-20 -20 -20 -20 -20 -20 -20 -20 -20 -20 -17 -12 -20 -20 -20 -20 -20 -20 -20 -20 -20 -20 -20 -18 -20 -20 -20 5 13 1 6 8
-20 -20 -20 -20 -20 -20 -20 -20 -20 -20 -18 -13 -15 -20 -20 -20 -20 -20 -20 -20 -20 -20 -20 -20 -20 -5 -19 -20 -20 -20 -18 -9
-20 -20 -20 -20 -20 -20 -20 -20 -20 -20 -20 -19 -7 -4 -20 -20 -20 -20 -20 -20 -20 -20 -20 -20 -20 -10 0 -5 -10 -20 -20 -20
-20 -20 -20 -20 -20 -20 -20 -20 -20 -20 -20 -20 -20 -2 -20 -20 -20 -20 -20 -20 -20 -20 -20 -20 -20 -20 -20 -20 -16 -1 3 1
-20 -20 -20 -20 -20 -20 -20 -20 -20 -20 -20 -20 -20 -20 -20 -1 -20 -20 -20 -20 -20 -20 -20 -20 -20 -20 -20 -20 -20 -20 -20 -20
-20 -17 -11 -4 -20 -20 -20 -20 -20 -20 -20 -20 -20 -20 -20 -20 2 -11 -20 -20 -20 -20 -20 -20 -20 -20 -20 -20 -20 -20 -20 -20
1 -19 -20 -17 7 25 -14 -20 -20 -20 -20 -20 -20 -20 -20 -20 -20 -20 -20 -14 -20 -20 -20 -20 -20 -20 -20 -20 -20 -20 -20 -20
-5 -12 -20 -20 -20 -20 27 -20 -20 -20 -20 -20 -20 -20 -20 -20 -20 -20 -20 -20 -20 -20 -20 -20 -20 -20 -20 -20 -20 -20 -20 -20
-20 -20 -20 -20 -20 -20 13 -11 15 -19 -20 -20 -20 -7 -20 -20 -20 -20 -20 -20 -20 -11 -20 -12 -20 -20 -20 -20 -20 -20 -20 -20
-20 -20 -20 -20 -20 -20 -20 -20 -18 -20 14 10 -20 -20 27 26 -20 -20 -20 -20 -20 -20 -20 -20 -12 -20 -20 -20 -20 -20 -20 -20
Wind_Speed
11 16 17 13 16 15 13 8 8 10 7 7 4 3 3 2 1 6 10 11 17 14 12 9 7 9 8 8 8 4 6 7
14 16 16 15 17 16 14 12 9 9 7 7 5 4 4 3 2 5 11 14 13 15 10 8 6 8 9 9 6 9 5 4
14 16 14 14 16 16 13 12 11 9 7 5 4 6 4 3 2 5 10 14 15 14 12 7 4 5 8 7 6 4 3 5
17 18 16 16 17 17 15 12 11 9 9 6 6 6 5 4 2 5 5 12 14 13 9 9 8 2 6 5 6 7 7 2
20 17 16 17 15 15 15 14 12 10 11 9 11 8 8 4 5 5 6 8 11 11 13 9 9 7 5 4 5 4 5 7
20 20 20 16 17 15 14 14 13 12 12 11 10 10 7 6 6 8 7 5 7 9 10 8 10 7 7 8 6 6 4 5
22 20 18 16 15 15 15 15 14 13 13 13 13 13 11 9 8 8 7 8 6 7 11 11 8 9 8 7 6 6 5 4
18 19 18 17 18 17 14 15 14 13 15 15 14 14 14 15 13 10 12 9 8 9 11 12 8 9 10 9 8 8 8 6
20 20 18 18 19 18 17 16 16 14 15 16 14 15 11 11 13 11 10 9 11 6 7 10 10 8 8 9 8 6 6 5
19 19 19 19 19 20 18 17 16 16 15 14 15 15 14 13 14 12 11 9 8 8 8 9 8 8 7 7 6 7 6 7
19 19 19 18 19 19 18 18 18 17 16 14 14 15 15 14 13 15 14 13 12 11 9 11 11 10 11 10 8 8 10 8
8 16 16 16 16 18 18 18 18 17 16 15 15 14 16 14 14 15 14 14 14 14 14 14 14 14 13 12 13 11 12 13
7 13 15 16 16 16 17 16 16 18 15 15 16 14 16 17 16 16 16 15 14 15 14 17 17 17 16 15 15 14 13 13
9 7 13 14 15 15 17 16 17 15 17 16 16 16 16 17 18 17 18 18 17 17 17 18 19 19 18 17 16 16 15 15
16 16 6 2 14 16 16 16 16 15 18 18 18 19 18 16 15 18 18 18 19 19 19 19 19 19 19 19 18 17 17 16
13 11 8 8 10 6 9 15 17 17 15 18 19 18 18 18 18 16 16 17 18 18 19 20 20 19 17 21 20 19 19 19
13 13 14 11 9 9 10 6 14 17 17 17 16 19 19 19 19 18 18 18 18 18 20 20 21 16 21 21 20 18 19 19
9 11 12 12 13 12 11 8 5 14 17 15 16 14 19 19 17 19 20 20 17 17 19 19 21 21 19 19 21 18 17 19
7 9 11 13 13 15 12 10 6 13 8 12 15 16 15 14 16 18 16 15 18 18 17 18 17 17 16 19 19 19 19 19
Wind_Direction
167 153 154 140 139 144 150 155 144 125 120 115 115 103 95 85 120 189 172 166 173 167 151 153 155 145 150 155 137 130 150 156
165 155 141 140 135 143 151 144 134 130 137 139 141 137 129 104 99 131 165 151 140 152 129 123 117 144 142 143 130 137 143 145
160 151 149 146 141 142 145 145 142 141 150 155 147 143 128 109 94 108 124 135 135 134 121 113 104 127 136 137 134 125 116 155
157 155 156 144 143 150 149 149 146 150 150 141 129 109 113 114 110 115 132 141 132 125 128 148 153 171 141 152 144 133 158 139
159 155 157 155 149 147 146 148 152 149 155 155 157 146 160 164 156 136 135 149 147 156 156 166 161 167 162 165 156 150 151 161
163 164 166 155 148 150 146 148 151 163 161 163 162 159 170 147 151 145 160 158 160 155 174 172 171 173 177 175 171 170 147 141
169 164 151 151 147 142 149 151 161 168 166 164 173 170 164 160 161 163 171 178 180 185 183 190 172 177 176 176 177 180 156 149
155 154 155 155 156 149 151 155 165 173 172 173 176 179 173 174 173 177 174 181 192 202 189 197 185 178 175 179 179 184 174 168
158 161 159 160 158 156 156 163 170 174 174 178 180 182 182 185 184 181 189 189 191 173 178 182 191 178 174 185 185 177 165 170
157 161 167 161 162 165 162 167 173 185 179 178 184 185 186 189 189 190 189 189 191 178 184 182 186 188 186 179 191 187 191 199
169 169 168 168 167 161 163 170 178 184 183 186 187 188 189 191 190 193 194 194 194 192 191 197 193 199 200 196 191 195 199 201
147 169 167 165 161 165 167 172 177 184 187 186 192 187 191 190 195 200 197 195 198 198 192 199 205 204 203 204 209 206 203 211
89 158 158 162 165 167 174 175 179 182 188 188 196 195 191 196 198 198 199 201 201 202 197 202 206 208 208 209 212 212 212 213
16 138 165 167 172 170 178 181 184 173 182 190 194 202 203 201 202 201 200 201 202 203 201 205 207 211 211 213 217 219 220 220
40 30 41 227 174 174 178 184 182 179 178 189 196 201 206 210 203 204 204 202 205 205 208 209 211 213 215 213 213 217 222 228
39 44 17 56 55 356 208 182 186 187 184 189 197 199 203 208 213 209 209 209 208 209 211 215 217 216 216 215 217 220 223 229
47 35 34 33 28 24 8 223 197 187 197 203 190 192 198 203 205 208 211 213 212 214 216 217 220 221 219 210 216 223 228 231
43 41 45 47 25 16 19 352 324 202 202 206 206 192 198 202 200 206 212 213 213 215 216 220 223 226 220 211 208 221 226 230
57 63 42 25 26 14 0 358 9 21 262 225 206 207 209 201 201 208 209 207 213 214 218 215 219 226 210 213 205 219 227 231